User: anonymous   Login
Location: Unspecified
(0.0000°N, 0.0000°E)
Time: 04:13:55
(UTC+00:00)
Language:

STARLINK-34400 - Orbit

View from above orbital plane
View from above orbital plane
View from above satellite
View from above satellite

Ground track
Ground track

The orbit is defined by the following mean orbital elements,

1 64463U          26145.15019664 +.00000000 +00000-0 +17068-2 0 00000
2 64463  53.1578  95.9252 0001346  85.6190 274.4965 15.30248750    01
Epoch (UTC): 25 May 2026 03:36:16
Eccentricity: 0.0001346
inclination: 53.1578°
perigee height: 474 km
apogee height: 476 km
right ascension of ascending node: 95.9252°
argument of perigee: 85.6190°
revolutions per day: 15.30248750
mean anomaly at epoch: 274.4965°

The dashed part of the orbit path shows where the satellite is in the earth's shadow,  

DLR